Montreal Mirabel, Quebec

2:19 AM EDT on June 27, 2017 (GMT -0400)
Montreal Mirabel

Weather History for CYMX - August, 2012

Change the Weather History Date:

Monday, August 13, 2012

  Actual Average Record
Temperature  
Mean Temperature 68 °F -  
Max Temperature 75 °F 76 °F 87 °F (2002)
Min Temperature 62 °F 56 °F 46 °F (1998)
Cooling Degree Days 4    
Growing Degree Days 18 (Base 50)    
Moisture  
Dew Point 65 °F    
Average Humidity 87    
Maximum Humidity 100    
Minimum Humidity 69    
Precipitation  
Precipitation 0.00 in - - ()
Sea Level Pressure  
Sea Level Pressure 29.90 in    
Wind  
Wind Speed 5 mph ()    
Max Wind Speed 14 mph    
Max Gust Speed 17 mph    
Visibility 8.6 miles    
Events Rain    
Averages and records for this station are not official NWS values.
T = Trace of Precipitation, MM = Missing Value Source: Averaged Metar Reports

Daily Weather History Graph

Daily Weather History Graph

Search for Another Location

Airport or City:

Trip Planner

Search our weather history database for the weather conditions in past years. The results will help you decide how hot, cold, wet, or windy it might be!

Date:

Astronomy

Aug. 13, 2012 Rise Set
Actual Time 5:54 AM EDT 8:06 PM EDT
Civil Twilight 5:21 AM EDT 8:38 PM EDT
Nautical Twilight 4:41 AM EDT 9:19 PM EDT
Astronomical Twilight 3:56 AM EDT 10:03 PM EDT
Moon 1:48 AM EDT (8/13) 5:21 PM EDT (8/13)
Length of Visible Light 15h 17m
Length of Day
14h 11m
Waning Crescent, 16% of the Moon is Illuminated
Aug 13
Waning Crescent
Aug 17
New
Aug 24
First Quarter
Aug 31
Full
Sep 8
Last Quarter

Hourly Weather History & Observations

Time (EDT) Temp. Dew Point Humidity Pressure Visibility Wind Dir Wind Speed Gust Speed Precip Events Conditions
12:00 AM 64.4 °F 62.6 °F 94% 29.88 in 25.0 mi West 2.3 mph - N/A   Mostly Cloudy
1:00 AM 64.4 °F 62.6 °F 94% 29.87 in 25.0 mi SW 4.6 mph - N/A   Mostly Cloudy
2:00 AM 64.4 °F 62.6 °F 94% 29.86 in 25.0 mi SW 6.9 mph - N/A   Scattered Clouds
3:00 AM 62.6 °F 62.6 °F 100% 29.86 in 25.0 mi SW 3.5 mph - N/A   Scattered Clouds
4:00 AM 62.6 °F 62.6 °F 100% 29.87 in 25.0 mi SW 4.6 mph - N/A   Partly Cloudy
5:00 AM 64.4 °F 62.6 °F 94% 29.88 in 15.0 mi SW 5.8 mph - N/A   Mostly Cloudy
6:00 AM 64.4 °F 62.6 °F 94% 29.90 in 5.0 mi SW 5.8 mph - N/A   Overcast
6:20 AM 64.4 °F 62.6 °F 94% - 3.0 mi WSW 3.5 mph - N/A   Overcast
7:00 AM 64.4 °F 62.6 °F 94% 29.91 in 2.0 mi SW 4.6 mph - N/A   Mist
7:46 AM 64.4 °F 64.4 °F 100% - 5.0 mi SW 4.6 mph - N/A   Mostly Cloudy
8:00 AM 66.2 °F 64.4 °F 94% 29.92 in 5.0 mi SW 5.8 mph - N/A   Mostly Cloudy
8:40 AM 66.2 °F 64.4 °F 94% - 5.0 mi SW 9.2 mph - N/A   Overcast
9:00 AM 66.2 °F 64.4 °F 94% 29.93 in 5.0 mi SW 8.1 mph - N/A   Overcast
10:00 AM 66.2 °F 64.4 °F 94% 29.94 in 7.0 mi SW 4.6 mph - N/A   Overcast
10:31 AM 68.0 °F 66.2 °F 94% - 10.0 mi SW 9.2 mph - N/A   Mostly Cloudy
11:00 AM 71.6 °F 66.2 °F 83% 29.93 in 10.0 mi SSW 9.2 mph - N/A   Mostly Cloudy
12:00 PM 73.4 °F 66.2 °F 78% 29.92 in 25.0 mi SW 6.9 mph - N/A   Mostly Cloudy
1:00 PM 75.2 °F 66.2 °F 73% 29.91 in 25.0 mi SW 6.9 mph - N/A   Mostly Cloudy
2:00 PM 75.2 °F 66.2 °F 73% 29.90 in 25.0 mi South 13.8 mph - N/A   Mostly Cloudy
2:54 PM 73.4 °F 64.4 °F 73% - 20.0 mi WSW 8.1 mph 17.3 mph N/A Rain Light Rain Showers
3:00 PM 73.4 °F 66.2 °F 78% 29.90 in 20.0 mi West 5.8 mph 17.3 mph N/A Rain Light Rain Showers
3:32 PM 75.2 °F 64.4 °F 69% - 25.0 mi WSW 6.9 mph - N/A   Mostly Cloudy
4:00 PM 75.2 °F 66.2 °F 73% 29.89 in 25.0 mi WSW 5.8 mph - N/A   Mostly Cloudy
5:00 PM 73.4 °F 66.2 °F 78% 29.90 in 25.0 mi WSW 6.9 mph - N/A   Mostly Cloudy
6:00 PM 71.6 °F 64.4 °F 78% 29.90 in 25.0 mi SW 2.3 mph - N/A   Mostly Cloudy
7:00 PM 75.2 °F 66.2 °F 73% 29.91 in 25.0 mi SW 3.5 mph - N/A   Mostly Cloudy
8:00 PM 69.8 °F 66.2 °F 88% 29.91 in 25.0 mi SSE 2.3 mph - N/A   Scattered Clouds
9:00 PM 68.0 °F 66.2 °F 94% 29.92 in 25.0 mi SW 3.5 mph - N/A   Mostly Cloudy
10:00 PM 69.8 °F 64.4 °F 83% 29.93 in 25.0 mi West 2.3 mph - N/A   Scattered Clouds
11:00 PM 66.2 °F 64.4 °F 94% 29.93 in 25.0 mi SW 3.5 mph - N/A   Scattered Clouds